Akzhal

Kazakhstan     47˚44′50″N   74˚01′32″E
temp.,
°C
wind,
m/s
gust,
m/s
humid.,
%
clouds,
%
prec.,
mm/h
давл.,
hPa
HPBL,
m
27 november, fri
fri2700:00−12˚e227713 0.0 103621
03:00−11˚e2379100 0.0 103521
06:00−10˚ese3381100 0.0 103541
09:00−10˚e4580100 0.0 1034126
12:00−7˚e3579100 0.0 1032190
15:00−6˚e3482100 0.0 1031167
18:00−8˚e3482100 0.0 103254
21:00−8˚e4481100 0.0 103178
28 november, sat
sat2800:00−7˚ese3582100 0.0 102995
03:00−6˚e5995100 0.6 1027261
06:00−5˚ese71296100 3.6 1025375
09:00−4˚se71296100 3.1 1023513
12:00−2˚s81297100 5.1 1023527
15:00−3˚sw91585100 0.3 1025869
18:00−5˚sw61390100 0.3 1029747
21:00−6˚wsw61393100 0.6 1030853
29 november, sun
sun2900:00−7˚w71391100 1.1 10321036
03:00−8˚w71392100 0.5 1034962
06:00−11˚wnw61287100 1.0 1037716
09:00−12˚nw61386100 0.0 1039555
12:00−12˚nw71086100 0.0 1041526
15:00−11˚nw71186100 0.0 1042467
18:00−13˚nw61288100 0.0 1044394
21:00−15˚nnw61190100 0.0 1045322
30 november, mon
mon3000:00−18˚nnw6109199 0.0 1046185
03:00−19˚nnw58920 0.0 1046110
06:00−20˚nnw56910 0.0 104673
09:00−20˚n34880 0.0 104728
12:00−17˚nne36870 0.0 1047159
15:00−16˚nne35870 0.0 104687
18:00−19˚nne55860 0.0 104776
21:00−19˚ne58860 0.0 1047129
1 december, tue
tue100:00−18˚ne44890 0.0 104645
03:00−16˚ne45880 0.0 104673
06:00−15˚ne58860 0.0 1046126
09:00−14˚ene511860 0.0 1046184
12:00−10˚ene614840 0.0 1046407
15:00−9˚ene614820 0.0 1044408
18:00−12˚ene612810 0.0 1045217
21:00−13˚ene511810 0.0 1046182